{"data":{"norad_id":66029,"epoch":"2026-05-25T04:24:10.460160Z","epoch_age_seconds":73296,"freshness":"FRESH","line1":"1 66029U 25232AA  26145.18345440  .00020452  00000+0  70049-3 0  9999","line2":"2 66029  53.1570 108.8378 0001165  86.1723 273.9411 15.30211530 35142","mean_motion":15.3021153,"eccentricity":0.0001165,"inclination_deg":53.157,"raan_deg":108.8378,"arg_perigee_deg":86.1723,"mean_anomaly_deg":273.9411,"bstar":0.00070049,"rev_number":3514,"period_min":94.104636631512,"perigee_km":474.38223162836,"apogee_km":475.97905463921,"semimajor_km":6853.3176431338,"source":"CELESTRAK","updated_at":"2026-05-25T13:38:21.018676Z"}}